Group_ship,Cruise,JD_GMT,Date_DDMMYYYY,TIME_HH:MM:SS,Lat_dec_degree,Long_dec_degree,xCO2eq_ppm,xCO2a_ppm,Pres_Equi_hPa,Pres_sealevel_hPa,EqTemp_C,SST(TSG)_C,Sal(TSG)_Permil,Water_flow_l/min,Gasflow_IR_ml/min,Temp_IR_C,Pres_IR_hPa,Ship_heading_true_degree,Ship_speed_knot,Wind_dir_rel_degree,Wind_speed_rel_m/s,fCO2W@SST_uatm,Qcflag_water,fCO2a_uatm,Qcflag_air,dfCO2_uatm,Fluoro_ug/l,Wind_speed_true_m/s,Wind_dir_true_degree,Air_temp_C,Oxygen
AOML_Explorer,Ex0719E,124.973,04052007,23:21:40,25.546,-79.921,393.13,-9.00,1013.67,1010.40,27.26,27.51,36.192,1.517,101.483,32.734,1013.670,163.000,16.000,325.000,12.868,382.16,2,-9.00,9,-9.00,0.02,7.52,93.09,26.24,229.04
AOML_Explorer,Ex0719E,124.975,04052007,23:24:13,25.535,-79.917,393.35,-9.00,1013.68,1010.50,27.23,27.52,36.186,1.515,102.078,32.735,1013.682,163.200,16.000,319.000,12.353,382.94,2,-9.00,9,-9.00,0.03,7.91,82.92,26.21,228.96
AOML_Explorer,Ex0719E,124.977,04052007,23:26:46,25.525,-79.913,393.23,-9.00,1013.73,1010.70,27.23,27.50,36.200,1.556,101.975,32.733,1013.725,161.700,16.100,324.000,12.353,382.62,2,-9.00,9,-9.00,0.03,7.15,88.01,26.23,228.95
AOML_Explorer,Ex0719E,124.979,04052007,23:29:19,25.514,-79.910,393.29,-9.00,1013.68,1010.30,27.24,27.50,36.204,1.528,101.068,32.730,1013.676,162.500,16.200,316.000,12.353,382.51,2,-9.00,9,-9.00,0.03,8.34,78.23,26.22,229.09
AOML_Explorer,Ex0719E,124.980,04052007,23:31:52,25.503,-79.906,393.25,-9.00,1013.74,1010.50,27.22,27.54,36.196,1.549,100.823,32.730,1013.735,162.200,16.200,315.000,10.809,383.43,2,-9.00,9,-9.00,0.03,7.38,69.31,26.28,229.22
AOML_Explorer,Ex0719E,124.982,04052007,23:34:25,25.492,-79.902,392.89,-9.00,1013.64,1010.30,27.23,27.53,36.204,1.508,100.816,32.728,1013.645,162.000,16.200,320.000,13.382,382.75,2,-9.00,9,-9.00,0.03,8.54,87.34,26.27,229.24
AOML_Explorer,Ex0719E,124.984,04052007,23:36:58,25.481,-79.898,392.90,-9.00,1013.59,1010.20,27.24,27.54,36.214,1.547,101.232,32.727,1013.591,162.800,16.200,319.000,12.868,382.76,2,-9.00,9,-9.00,0.03,8.28,83.89,26.25,229.29
AOML_Explorer,Ex0719E,124.986,04052007,23:39:31,25.470,-79.894,392.79,-9.00,1013.66,1010.40,27.23,27.58,36.215,1.552,101.177,32.726,1013.663,162.100,16.300,317.000,12.353,383.43,2,-9.00,9,-9.00,0.03,8.17,78.92,26.22,229.41
AOML_Explorer,Ex0719E,124.988,04052007,23:42:04,25.459,-79.890,392.60,-9.00,1013.49,1010.10,27.25,27.55,36.226,1.542,101.520,32.723,1013.491,162.600,16.300,312.000,12.353,382.35,2,-9.00,9,-9.00,0.03,8.94,73.52,26.22,229.47
AOML_Explorer,Ex0719E,124.989,04052007,23:44:37,25.448,-79.886,392.80,-9.00,1013.52,1010.10,27.27,27.52,36.234,1.544,101.566,32.724,1013.525,162.600,16.400,312.000,12.868,381.76,2,-9.00,9,-9.00,0.03,9.34,75.61,26.24,229.30
AOML_Explorer,Ex0719E,124.991,04052007,23:47:10,25.437,-79.883,393.03,-9.00,1013.68,1010.10,27.26,27.53,36.233,1.520,101.398,32.727,1013.685,162.200,16.400,317.000,12.868,382.43,2,-9.00,9,-9.00,0.03,8.59,80.79,26.25,229.30
AOML_Explorer,Ex0719E,124.993,04052007,23:49:43,25.426,-79.879,392.46,-9.00,1013.37,1009.80,27.26,27.54,36.231,1.516,100.991,32.727,1013.373,163.100,16.400,309.000,13.382,381.88,2,-9.00,9,-9.00,0.03,10.19,74.19,26.22,229.15
AOML_Explorer,Ex0719E,124.995,04052007,23:52:16,25.415,-79.875,392.64,-9.00,1013.56,1010.00,27.25,27.55,36.232,1.540,101.127,32.730,1013.563,163.000,16.500,313.000,12.868,382.44,2,-9.00,9,-9.00,0.03,9.20,75.93,26.22,229.27
AOML_Explorer,Ex0719E,124.996,04052007,23:54:49,25.403,-79.871,392.54,-9.00,1013.53,1010.20,27.25,27.51,36.236,1.539,101.008,32.734,1013.528,163.500,16.500,314.000,12.353,381.74,2,-9.00,9,-9.00,0.03,8.66,75.22,26.2,229.21
AOML_Explorer,Ex0719E,124.998,04052007,23:57:22,25.392,-79.867,392.58,-9.00,1013.72,1010.10,27.25,27.50,36.232,1.548,101.001,32.736,1013.723,162.800,16.500,316.000,12.868,381.67,2,-9.00,9,-9.00,0.03,8.76,79.37,26.24,229.17
AOML_Explorer,Ex0719E,125.000,04052007,23:59:55,25.381,-79.864,392.12,-9.00,1013.63,1010.20,27.23,27.49,36.228,1.549,101.127,32.738,1013.629,162.300,16.600,314.000,12.868,381.39,2,-9.00,9,-9.00,0.03,9.01,76.75,26.2,229.09
AOML_Explorer,Ex0719E,125.015,05052007,0:21:40,25.285,-79.830,389.62,-9.00,1014.43,1011.10,27.18,27.43,36.209,1.553,101.632,32.796,1014.430,162.400,16.700,319.000,11.838,379.09,2,-9.00,9,-9.00,0.03,7.57,76.20,26.23,228.88
AOML_Explorer,Ex0719E,125.017,05052007,0:24:13,25.273,-79.826,389.63,-9.00,1014.46,1011.00,27.16,27.37,36.211,1.541,101.651,32.791,1014.460,162.500,16.800,315.000,11.838,378.63,2,-9.00,9,-9.00,0.03,8.19,72.10,26.21,228.80
AOML_Explorer,Ex0719E,125.019,05052007,0:26:46,25.262,-79.822,389.80,-9.00,1014.53,1011.00,27.14,27.38,36.208,1.571,102.056,32.787,1014.528,162.700,16.800,310.000,12.353,379.24,2,-9.00,9,-9.00,0.03,9.32,70.08,26.25,228.82
AOML_Explorer,Ex0719E,125.020,05052007,0:29:19,25.250,-79.819,389.63,-9.00,1014.56,1011.30,27.11,27.35,36.211,1.540,101.363,32.784,1014.561,162.300,16.900,315.000,11.838,379.03,2,-9.00,9,-9.00,0.02,8.20,71.92,26.26,228.65
AOML_Explorer,Ex0719E,125.022,05052007,0:31:52,25.239,-79.815,389.32,-9.00,1014.50,1011.20,27.10,27.31,36.204,1.538,101.779,32.776,1014.505,162.700,16.900,308.000,12.353,378.37,2,-9.00,9,-9.00,0.03,9.64,67.85,26.26,228.48
AOML_Explorer,Ex0719E,125.024,05052007,0:34:25,25.227,-79.811,389.10,-9.00,1014.77,1011.60,27.06,27.32,36.206,1.541,101.495,32.772,1014.767,162.600,16.900,313.000,10.809,378.91,2,-9.00,9,-9.00,0.03,7.88,64.01,26.29,228.57
AOML_Explorer,Ex0719E,125.026,05052007,0:36:58,25.216,-79.807,388.63,-9.00,1014.81,1011.60,27.06,27.35,36.211,1.551,101.795,32.770,1014.813,162.500,16.900,315.000,11.323,379.05,2,-9.00,9,-9.00,0.02,7.91,68.78,26.2,228.70
AOML_Explorer,Ex0719E,125.027,05052007,0:39:31,25.204,-79.803,388.50,-9.00,1014.74,1011.50,27.07,27.33,36.207,1.517,102.140,32.764,1014.736,162.800,16.900,317.000,11.323,378.45,2,-9.00,9,-9.00,0.03,7.61,70.73,26.23,228.66
AOML_Explorer,Ex0719E,125.029,05052007,0:42:04,25.193,-79.799,388.59,-9.00,1014.71,1011.50,27.06,27.31,36.219,1.543,101.124,32.762,1014.712,162.500,17.000,319.000,12.353,378.24,2,-9.00,9,-9.00,0.03,7.97,78.00,26.24,228.48
AOML_Explorer,Ex0719E,125.031,05052007,0:44:37,25.181,-79.795,388.49,-9.00,1014.87,1011.70,27.06,27.34,36.224,1.524,101.496,32.760,1014.869,161.700,17.000,317.000,11.838,378.73,2,-9.00,9,-9.00,0.03,7.92,73.00,26.17,228.51
AOML_Explorer,Ex0719E,125.033,05052007,0:47:10,25.170,-79.792,388.37,-9.00,1014.80,1011.60,27.05,27.35,36.221,1.488,101.602,32.758,1014.799,162.600,17.100,317.000,11.323,378.91,2,-9.00,9,-9.00,0.03,7.59,70.42,26.27,228.66
AOML_Explorer,Ex0719E,125.035,05052007,0:49:43,25.158,-79.788,388.36,-9.00,1014.76,1011.60,27.06,27.32,36.230,1.451,100.885,32.756,1014.760,162.900,17.100,314.000,11.838,378.34,2,-9.00,9,-9.00,0.03,8.40,70.03,26.16,228.48
AOML_Explorer,Ex0719E,125.036,05052007,0:52:16,25.147,-79.784,388.64,-9.00,1015.01,1011.60,27.06,27.32,36.231,1.457,101.580,32.752,1015.007,162.800,17.200,314.000,11.323,378.69,2,-9.00,9,-9.00,0.03,8.06,67.09,26.13,228.44
AOML_Explorer,Ex0719E,125.038,05052007,0:54:49,25.135,-79.780,388.58,-9.00,1014.99,1011.80,27.04,27.34,36.234,1.479,101.534,32.750,1014.991,162.600,17.200,318.000,11.838,379.13,2,-9.00,9,-9.00,0.03,7.73,73.81,26.16,228.57
AOML_Explorer,Ex0719E,125.040,05052007,0:57:22,25.123,-79.776,388.49,-9.00,1015.08,1011.70,27.05,27.33,36.242,1.478,102.018,32.745,1015.077,162.700,17.300,314.000,11.323,378.77,2,-9.00,9,-9.00,0.03,8.05,66.63,26.16,228.50
AOML_Explorer,Ex0719E,125.042,05052007,0:59:55,25.111,-79.772,388.61,-9.00,1015.01,1011.80,27.06,27.31,36.230,1.483,101.060,32.744,1015.012,162.900,17.400,315.000,11.838,378.39,2,-9.00,9,-9.00,0.03,8.23,70.35,26.19,228.45
AOML_Explorer,Ex0719E,125.057,05052007,1:21:40,25.009,-79.738,387.36,-9.00,1015.19,1012.00,27.00,27.24,36.257,1.487,102.658,32.765,1015.190,161.800,17.800,316.000,11.838,377.20,2,-9.00,9,-9.00,0.03,8.19,67.62,26.13,228.34
AOML_Explorer,Ex0719E,125.058,05052007,1:24:13,24.997,-79.734,387.62,-9.00,1015.23,1011.80,26.99,27.22,36.255,1.497,101.653,32.758,1015.232,161.800,18.000,318.000,11.838,377.36,2,-9.00,9,-9.00,0.03,7.87,69.23,26.14,228.03
AOML_Explorer,Ex0719E,125.060,05052007,1:26:46,24.985,-79.729,387.85,-9.00,1015.29,1012.00,26.97,27.20,36.254,1.491,102.698,32.752,1015.290,161.700,18.000,322.000,12.353,377.65,2,-9.00,9,-9.00,0.03,7.53,76.05,26.18,228.19
AOML_Explorer,Ex0719E,125.062,05052007,1:29:19,24.973,-79.725,387.75,-9.00,1015.34,1012.00,26.95,27.17,36.256,1.453,101.753,32.745,1015.336,161.700,18.100,316.000,11.323,377.32,2,-9.00,9,-9.00,0.02,7.85,64.04,26.14,228.07
AOML_Explorer,Ex0719E,125.064,05052007,1:31:52,24.961,-79.721,387.59,-9.00,1015.28,1011.90,26.93,27.16,36.246,1.494,101.527,32.737,1015.285,162.200,18.100,312.000,12.353,377.39,2,-9.00,9,-9.00,0.03,9.22,66.02,26.16,227.95
AOML_Explorer,Ex0719E,125.066,05052007,1:34:25,24.948,-79.716,387.30,-9.00,1015.33,1012.00,26.90,27.19,36.246,1.459,101.517,32.730,1015.328,162.300,18.100,319.000,12.868,378.11,2,-9.00,9,-9.00,0.03,8.47,75.01,26.09,228.14
AOML_Explorer,Ex0719E,125.067,05052007,1:36:58,24.936,-79.712,386.86,-9.00,1015.34,1012.00,26.90,27.24,36.243,1.468,101.135,32.724,1015.342,162.100,18.200,319.000,12.353,378.38,2,-9.00,9,-9.00,0.03,8.15,72.12,26.16,228.50
AOML_Explorer,Ex0719E,125.069,05052007,1:39:31,24.924,-79.708,387.04,-9.00,1015.30,1012.10,26.93,27.25,36.250,1.479,102.102,32.719,1015.297,162.700,18.200,313.000,12.353,378.24,2,-9.00,9,-9.00,0.03,9.11,66.65,26.14,228.60
AOML_Explorer,Ex0719E,125.071,05052007,1:42:04,24.911,-79.704,387.52,-9.00,1015.31,1012.10,26.97,27.30,36.243,1.467,101.629,32.713,1015.313,162.400,18.200,316.000,12.353,378.80,2,-9.00,9,-9.00,0.03,8.64,69.13,26.2,228.78
AOML_Explorer,Ex0719E,125.073,05052007,1:44:37,24.899,-79.700,387.91,-9.00,1015.30,1012.20,26.98,27.30,36.245,1.452,101.686,32.708,1015.298,162.600,18.200,317.000,11.838,379.02,2,-9.00,9,-9.00,0.03,8.15,67.73,26.13,228.93
AOML_Explorer,Ex0719E,125.074,05052007,1:47:10,24.887,-79.695,388.35,-9.00,1015.31,1012.10,27.00,27.30,36.254,1.471,101.490,32.700,1015.306,162.400,18.200,314.000,11.323,379.12,2,-9.00,9,-9.00,0.03,8.35,61.90,26.22,229.03
AOML_Explorer,Ex0719E,125.076,05052007,1:49:43,24.874,-79.691,388.77,-9.00,1015.24,1012.10,27.02,27.28,36.254,1.482,101.909,32.699,1015.239,162.400,18.300,317.000,12.353,378.82,2,-9.00,9,-9.00,0.03,8.46,70.08,26.21,228.95
AOML_Explorer,Ex0719E,125.078,05052007,1:52:16,24.862,-79.687,389.03,-9.00,1015.27,1011.90,27.01,27.28,36.252,1.458,101.196,32.693,1015.267,162.600,18.300,312.000,11.838,379.28,2,-9.00,9,-9.00,0.03,8.99,62.78,26.21,228.99
AOML_Explorer,Ex0719E,125.080,05052007,1:54:49,24.849,-79.683,388.82,-9.00,1015.16,1011.90,27.00,27.27,36.254,1.483,101.936,32.690,1015.162,162.500,18.400,313.000,11.323,379.01,2,-9.00,9,-9.00,0.03,8.54,60.83,26.16,228.86
AOML_Explorer,Ex0719E,125.082,05052007,1:57:22,24.837,-79.679,388.75,-9.00,1015.15,1011.90,27.00,27.24,36.253,1.479,101.768,32.684,1015.146,162.400,18.400,314.000,11.838,378.46,2,-9.00,9,-9.00,0.03,8.68,63.92,26.16,228.88
AOML_Explorer,Ex0719E,125.083,05052007,1:59:55,24.824,-79.674,388.61,-9.00,1015.14,1011.90,26.99,27.20,36.254,1.467,101.652,32.682,1015.137,162.500,18.500,312.000,11.323,378.06,2,-9.00,9,-9.00,0.03,8.72,59.56,26.17,228.85
AOML_Explorer,Ex0719E,125.098,05052007,2:21:40,24.716,-79.638,385.91,-9.00,1015.17,1011.90,26.89,27.16,36.245,1.443,102.250,32.694,1015.167,162.800,19.100,313.000,11.838,376.38,2,-9.00,9,-9.00,0.03,8.94,60.98,26.2,228.52
AOML_Explorer,Ex0719E,125.100,05052007,2:24:13,24.703,-79.633,386.30,-9.00,1015.25,1011.90,26.89,27.17,36.247,1.401,102.177,32.687,1015.254,163.000,19.200,315.000,11.838,376.88,2,-9.00,9,-9.00,0.03,8.61,62.48,26.21,228.62
AOML_Explorer,Ex0719E,125.102,05052007,2:26:46,24.690,-79.629,386.71,-9.00,1015.27,1011.90,26.89,27.17,36.248,1.357,102.006,32.681,1015.267,162.600,19.300,316.000,12.868,377.25,2,-9.00,9,-9.00,0.03,9.04,68.28,26.17,228.61
AOML_Explorer,Ex0719E,125.104,05052007,2:29:19,24.677,-79.625,386.82,-9.00,1015.24,1012.00,26.89,27.18,36.246,1.414,102.076,32.672,1015.238,163.000,19.400,313.000,12.353,377.58,2,-9.00,9,-9.00,0.03,9.27,62.91,26.15,228.56
AOML_Explorer,Ex0719E,125.105,05052007,2:31:52,24.663,-79.620,387.00,-9.00,1015.38,1011.90,26.89,27.17,36.248,1.420,101.820,32.664,1015.378,163.100,19.400,313.000,12.353,377.56,2,-9.00,9,-9.00,0.03,9.24,62.72,26.16,228.59
AOML_Explorer,Ex0719E,125.107,05052007,2:34:25,24.650,-79.616,387.04,-9.00,1015.46,1012.20,26.90,27.16,36.247,1.398,101.215,32.654,1015.462,162.800,19.500,316.000,12.353,377.43,2,-9.00,9,-9.00,0.03,8.74,64.83,26.12,228.62
AOML_Explorer,Ex0719E,125.109,05052007,2:36:58,24.637,-79.611,387.15,-9.00,1015.35,1012.00,26.89,27.18,36.243,1.385,101.854,32.648,1015.349,163.000,19.600,315.000,12.353,377.79,2,-9.00,9,-9.00,0.03,8.91,63.97,26.22,228.66
AOML_Explorer,Ex0719E,125.111,05052007,2:39:31,24.624,-79.607,386.89,-9.00,1015.24,1012.00,26.89,27.19,36.244,1.400,101.650,32.646,1015.239,162.900,19.600,314.000,12.868,377.69,2,-9.00,9,-9.00,0.03,9.41,65.46,26.2,228.75
AOML_Explorer,Ex0719E,125.113,05052007,2:42:04,24.610,-79.602,386.98,-9.00,1015.47,1011.90,26.90,27.18,36.248,1.414,101.797,32.640,1015.468,162.800,19.700,314.000,13.382,377.64,2,-9.00,9,-9.00,0.03,9.73,67.64,26.08,228.70
AOML_Explorer,Ex0719E,125.114,05052007,2:44:37,24.597,-79.598,387.01,-9.00,1015.19,1012.00,26.91,27.20,36.246,1.370,101.429,32.635,1015.189,162.400,19.700,310.000,12.353,377.66,2,-9.00,9,-9.00,0.03,9.77,59.05,26.18,228.70
AOML_Explorer,Ex0719E,125.116,05052007,2:47:10,24.584,-79.593,387.04,-9.00,1015.31,1012.00,26.91,27.20,36.246,1.422,101.721,32.633,1015.306,162.300,19.800,312.000,12.868,377.85,2,-9.00,9,-9.00,0.03,9.74,62.69,26.16,228.79
AOML_Explorer,Ex0719E,125.118,05052007,2:49:43,24.570,-79.588,387.09,-9.00,1015.15,1011.70,26.92,27.19,36.247,1.420,101.804,32.628,1015.154,162.300,19.800,313.000,13.382,377.47,2,-9.00,9,-9.00,0.03,9.91,65.81,26.16,228.67
AOML_Explorer,Ex0719E,125.120,05052007,2:52:16,24.557,-79.584,387.40,-9.00,1015.30,1011.90,26.92,27.18,36.249,1.430,101.176,32.624,1015.297,162.400,19.800,316.000,12.868,377.62,2,-9.00,9,-9.00,0.03,9.07,66.06,26.19,228.83
AOML_Explorer,Ex0719E,125.121,05052007,2:54:49,24.543,-79.579,387.43,-9.00,1015.21,1011.80,26.92,27.15,36.251,1.423,101.609,32.620,1015.209,162.200,19.900,311.000,13.382,377.29,2,-9.00,9,-9.00,0.03,10.27,63.54,26.22,228.69
AOML_Explorer,Ex0719E,125.123,05052007,2:57:22,24.530,-79.574,387.20,-9.00,1015.22,1011.70,26.90,27.13,36.246,1.430,101.661,32.618,1015.218,161.900,19.900,314.000,13.897,376.96,2,-9.00,9,-9.00,0.03,10.05,68.33,26.23,228.56
AOML_Explorer,Ex0719E,125.125,05052007,2:59:55,24.517,-79.569,387.05,-9.00,1015.30,1011.70,26.88,27.12,36.249,1.488,101.306,32.616,1015.304,162.100,19.900,309.000,13.382,377.12,2,-9.00,9,-9.00,0.03,10.65,61.73,26.36,228.65
AOML_Explorer,Ex0719E,125.140,05052007,3:21:40,24.403,-79.529,384.91,-9.00,1015.29,1011.60,26.77,26.99,36.276,1.485,102.602,32.634,1015.287,161.600,19.500,307.000,11.838,374.81,2,-9.00,9,-9.00,0.04,9.91,54.35,26.38,229.23
AOML_Explorer,Ex0719E,125.142,05052007,3:24:13,24.389,-79.524,385.65,-9.00,1015.32,1011.60,26.76,26.90,36.301,1.517,102.033,32.627,1015.317,161.700,19.900,305.000,11.838,374.32,2,-9.00,9,-9.00,0.04,10.25,52.84,26.37,229.14
AOML_Explorer,Ex0719E,125.144,05052007,3:26:46,24.376,-79.519,386.01,-9.00,1015.27,1011.80,26.74,26.87,36.267,1.498,101.916,32.623,1015.271,161.400,19.700,305.000,11.838,374.51,2,-9.00,9,-9.00,0.04,10.21,52.96,26.31,228.63
AOML_Explorer,Ex0719E,125.145,05052007,3:29:19,24.363,-79.515,385.73,-9.00,1015.23,1012.00,26.64,26.82,36.284,1.517,101.560,32.616,1015.228,161.800,19.900,308.000,12.868,375.07,2,-9.00,9,-9.00,0.03,10.39,59.65,26.38,228.35
AOML_Explorer,Ex0719E,125.147,05052007,3:31:52,24.350,-79.510,385.28,-9.00,1015.41,1011.80,26.64,26.77,36.276,1.492,101.345,32.608,1015.405,161.900,19.700,310.000,11.838,373.92,2,-9.00,9,-9.00,0.03,9.48,56.48,26.36,228.14
AOML_Explorer,Ex0719E,125.149,05052007,3:34:25,24.337,-79.505,385.19,-9.00,1015.40,1011.90,26.58,26.80,36.273,1.485,101.534,32.601,1015.397,161.700,19.700,309.000,11.838,375.14,2,-9.00,9,-9.00,0.03,9.65,55.61,26.39,228.30
AOML_Explorer,Ex0719E,125.151,05052007,3:36:58,24.323,-79.500,384.48,-9.00,1015.27,1011.90,26.56,26.75,36.279,1.501,101.708,32.594,1015.270,162.100,19.800,307.000,11.323,374.11,2,-9.00,9,-9.00,0.03,9.73,51.88,26.47,228.54
AOML_Explorer,Ex0719E,125.152,05052007,3:39:31,24.310,-79.496,384.26,-9.00,1015.35,1012.00,26.56,26.82,36.257,1.467,101.498,32.590,1015.354,161.900,19.600,309.000,11.323,374.94,2,-9.00,9,-9.00,0.03,9.40,53.00,26.35,228.58
AOML_Explorer,Ex0719E,125.154,05052007,3:42:04,24.297,-79.491,383.65,-9.00,1015.28,1012.00,26.52,26.75,36.274,1.483,101.563,32.585,1015.282,162.100,19.700,311.000,12.353,373.87,2,-9.00,9,-9.00,0.03,9.67,59.59,26.42,228.54
AOML_Explorer,Ex0719E,125.156,05052007,3:44:37,24.283,-79.487,383.49,-9.00,1015.20,1011.80,26.56,26.81,36.249,1.490,101.563,32.577,1015.198,162.400,19.700,310.000,11.323,374.03,2,-9.00,9,-9.00,0.03,9.27,53.92,26.43,228.51
AOML_Explorer,Ex0719E,125.158,05052007,3:47:10,24.270,-79.482,383.23,-9.00,1015.21,1011.80,26.52,26.87,36.276,1.482,101.817,32.576,1015.207,162.200,17.300,304.000,11.838,375.14,2,-9.00,9,-9.00,0.03,10.58,52.39,26.4,229.06
AOML_Explorer,Ex0719E,125.160,05052007,3:49:43,24.257,-79.477,383.14,-9.00,1015.21,1011.90,26.60,26.83,36.280,1.467,101.962,32.571,1015.212,162.700,19.700,309.000,11.323,373.25,2,-9.00,9,-9.00,0.03,9.48,53.25,26.44,229.03
AOML_Explorer,Ex0719E,125.161,05052007,3:52:16,24.243,-79.473,383.98,-9.00,1015.18,1011.90,26.62,26.76,36.283,1.490,101.173,32.570,1015.178,163.300,19.800,308.000,10.809,372.65,2,-9.00,9,-9.00,0.03,9.43,49.58,26.45,228.95
AOML_Explorer,Ex0719E,125.163,05052007,3:54:49,24.230,-79.468,383.95,-9.00,1015.02,1011.80,26.58,26.69,36.279,1.497,101.100,32.565,1015.015,161.900,19.800,303.000,10.294,372.25,2,-9.00,9,-9.00,0.03,9.98,43.54,26.43,228.75
AOML_Explorer,Ex0719E,125.165,05052007,3:57:22,24.217,-79.464,383.38,-9.00,1015.08,1011.70,26.52,26.69,36.270,1.513,101.431,32.562,1015.076,162.200,19.800,303.000,10.294,372.63,2,-9.00,9,-9.00,0.04,9.97,43.72,26.41,228.69
AOML_Explorer,Ex0719E,125.167,05052007,3:59:55,24.203,-79.459,382.57,-9.00,1015.07,1011.60,26.47,26.76,36.264,1.490,101.511,32.558,1015.065,161.700,19.900,305.000,10.809,373.66,2,-9.00,9,-9.00,0.03,9.93,46.91,26.42,228.85
AOML_Explorer,Ex0719E,125.182,05052007,4:21:40,24.087,-79.419,382.84,-9.00,1014.96,1011.50,26.55,26.84,36.250,1.498,101.973,32.576,1014.961,162.800,19.900,320.000,13.897,373.75,2,-9.00,9,-9.00,0.03,9.46,72.59,26.59,228.86
AOML_Explorer,Ex0719E,125.183,05052007,4:24:13,24.074,-79.414,382.99,-9.00,1014.92,1011.50,26.55,26.77,36.284,1.506,101.916,32.573,1014.922,162.500,20.000,321.000,14.412,372.82,2,-9.00,9,-9.00,0.03,9.64,75.51,26.68,228.68
AOML_Explorer,Ex0719E,125.185,05052007,4:26:46,24.060,-79.410,383.65,-9.00,1014.84,1011.50,26.59,26.80,36.263,1.476,100.917,32.566,1014.843,162.700,20.000,320.000,14.412,373.36,2,-9.00,9,-9.00,0.03,9.86,74.55,26.74,228.76
AOML_Explorer,Ex0719E,125.187,05052007,4:29:19,24.047,-79.405,383.98,-9.00,1014.91,1011.50,26.54,26.82,36.268,1.273,101.825,32.560,1014.914,163.200,19.900,320.000,14.412,374.78,2,-9.00,9,-9.00,0.03,9.85,74.73,26.77,228.72
AOML_Explorer,Ex0719E,125.189,05052007,4:31:52,24.033,-79.401,384.13,-9.00,1014.91,1011.40,26.56,26.77,36.276,1.312,101.158,32.556,1014.914,162.200,19.900,324.000,15.441,373.84,2,-9.00,9,-9.00,0.03,9.92,81.84,26.77,228.67
AOML_Explorer,Ex0719E,125.191,05052007,4:34:25,24.020,-79.396,384.54,-9.00,1014.97,1011.20,26.56,26.79,36.251,1.312,101.942,32.549,1014.965,162.400,20.000,320.000,14.926,374.56,2,-9.00,9,-9.00,0.03,10.30,75.87,26.7,228.65
AOML_Explorer,Ex0719E,125.192,05052007,4:36:58,24.006,-79.391,384.36,-9.00,1014.85,1011.20,26.52,26.91,36.255,1.313,101.408,32.544,1014.854,162.500,20.000,319.000,14.926,376.74,2,-9.00,9,-9.00,0.03,10.51,74.43,26.71,228.97
AOML_Explorer,Ex0719E,125.194,05052007,4:39:31,23.993,-79.387,384.01,-9.00,1014.85,1011.40,26.56,26.94,36.259,1.323,101.928,32.537,1014.849,162.900,20.000,317.000,14.412,376.30,2,-9.00,9,-9.00,0.03,10.49,70.94,26.71,228.98
AOML_Explorer,Ex0719E,125.196,05052007,4:42:04,23.979,-79.382,384.46,-9.00,1014.84,1011.50,26.64,27.16,36.245,1.289,101.616,32.532,1014.839,162.800,20.000,325.000,14.926,378.77,2,-9.00,9,-9.00,0.03,9.45,81.44,26.67,229.20
AOML_Explorer,Ex0719E,125.198,05052007,4:44:37,23.966,-79.378,385.27,-9.00,1014.91,1011.60,26.71,27.24,36.262,1.318,101.240,32.526,1014.914,162.800,19.900,321.000,14.412,379.63,2,-9.00,9,-9.00,0.03,9.77,74.99,26.63,229.42
AOML_Explorer,Ex0719E,125.199,05052007,4:47:10,23.952,-79.373,386.83,-9.00,1014.95,1011.70,26.85,27.22,36.265,1.287,101.202,32.525,1014.950,162.800,20.000,320.000,13.382,378.72,2,-9.00,9,-9.00,0.03,9.28,69.25,26.62,229.29
AOML_Explorer,Ex0719E,125.201,05052007,4:49:43,23.939,-79.369,388.39,-9.00,1015.00,1011.60,26.91,27.22,36.279,1.301,101.388,32.524,1014.997,162.900,20.000,320.000,14.412,379.21,2,-9.00,9,-9.00,0.03,10.03,73.92,26.52,229.32
AOML_Explorer,Ex0719E,125.203,05052007,4:52:16,23.925,-79.364,389.08,-9.00,1015.02,1011.60,26.92,27.06,36.298,1.313,102.312,32.517,1015.016,162.900,20.000,323.000,13.897,377.38,2,-9.00,9,-9.00,0.03,9.07,74.47,26.56,228.97
AOML_Explorer,Ex0719E,125.205,05052007,4:54:49,23.912,-79.360,389.46,-9.00,1014.99,1011.50,26.91,26.94,36.291,1.309,101.088,32.516,1014.990,162.700,20.100,322.000,14.412,376.10,2,-9.00,9,-9.00,0.03,9.58,75.75,26.47,228.79
AOML_Explorer,Ex0719E,125.207,05052007,4:57:22,23.898,-79.355,388.83,-9.00,1014.89,1011.40,26.80,26.95,36.261,1.294,102.285,32.511,1014.887,162.600,20.100,323.000,13.382,377.33,2,-9.00,9,-9.00,0.03,8.73,71.74,26.48,228.87
AOML_Explorer,Ex0719E,125.208,05052007,4:59:55,23.884,-79.350,387.26,-9.00,1014.65,1011.50,26.70,27.02,36.252,1.322,101.838,32.509,1014.651,162.500,20.100,321.000,13.382,378.31,2,-9.00,9,-9.00,0.03,9.07,69.88,26.5,229.04
AOML_Explorer,Ex0719E,125.223,05052007,5:21:40,23.768,-79.310,383.51,-9.00,1014.45,1011.40,26.68,26.87,36.264,1.296,102.513,32.536,1014.449,161.800,20.100,321.000,13.382,372.69,2,-9.00,9,-9.00,0.03,8.91,69.93,26.44,228.74
AOML_Explorer,Ex0719E,125.225,05052007,5:24:13,23.754,-79.306,383.97,-9.00,1014.50,1011.40,26.65,26.76,36.270,1.328,101.526,32.535,1014.502,162.000,20.200,314.000,12.868,371.90,2,-9.00,9,-9.00,0.03,9.91,61.20,26.49,228.29
AOML_Explorer,Ex0719E,125.227,05052007,5:26:46,23.741,-79.301,383.82,-9.00,1014.36,1011.20,26.60,26.71,36.257,1.310,101.963,32.533,1014.364,162.000,20.100,317.000,13.382,371.90,2,-9.00,9,-9.00,0.03,9.74,65.96,26.43,228.34
AOML_Explorer,Ex0719E,125.229,05052007,5:29:19,23.727,-79.296,382.76,-9.00,1014.39,1011.20,26.52,26.68,36.245,1.300,102.400,32.526,1014.386,162.300,20.100,319.000,12.868,371.59,2,-9.00,9,-9.00,0.03,9.11,65.34,26.43,228.19
AOML_Explorer,Ex0719E,125.230,05052007,5:31:52,23.714,-79.292,381.87,-9.00,1014.29,1011.20,26.47,26.77,36.238,1.315,102.232,32.524,1014.292,162.300,20.200,312.000,12.868,372.82,2,-9.00,9,-9.00,0.03,10.35,59.29,26.37,228.21
AOML_Explorer,Ex0719E,125.232,05052007,5:34:25,23.700,-79.287,381.15,-9.00,1014.33,1011.00,26.47,26.81,36.298,1.306,101.884,32.516,1014.331,162.200,20.300,315.000,13.382,372.72,2,-9.00,9,-9.00,0.03,10.13,63.80,26.41,228.82
AOML_Explorer,Ex0719E,125.234,05052007,5:36:58,23.686,-79.282,381.37,-9.00,1014.30,1011.10,26.54,26.83,36.294,1.291,102.176,32.509,1014.296,161.900,20.300,319.000,12.868,372.16,2,-9.00,9,-9.00,0.03,9.04,64.60,26.38,229.87
AOML_Explorer,Ex0719E,125.236,05052007,5:39:31,23.673,-79.277,382.26,-9.00,1014.30,1011.00,26.53,26.88,36.455,1.309,102.117,32.500,1014.296,161.900,20.400,316.000,13.382,373.87,2,-9.00,9,-9.00,0.03,9.87,64.41,26.37,230.10
AOML_Explorer,Ex0719E,125.238,05052007,5:42:04,23.659,-79.273,382.55,-9.00,1014.24,1011.00,26.62,26.74,36.386,1.300,102.478,32.495,1014.244,161.700,20.400,321.000,14.412,370.69,2,-9.00,9,-9.00,0.03,9.60,73.48,26.32,229.59
AOML_Explorer,Ex0719E,125.239,05052007,5:44:37,23.645,-79.268,384.34,-9.00,1014.18,1011.10,26.56,26.66,36.354,1.321,102.390,32.491,1014.180,161.700,20.500,316.000,13.897,372.04,2,-9.00,9,-9.00,0.03,10.16,66.74,26.37,229.21